"2019/01/01",  4.0,  4.4,  3.7
"2019/01/02",  4.1,  4.5,  3.8
"2019/01/03",  4.1,  4.4,  3.8
"2019/01/04"," * "," * "," * "
"2019/01/05"," * "," * "," * "
"2019/01/06"," * "," * "," * "
"2019/01/07"," * "," * "," * "
"2019/01/08",  3.6,  4.0,  3.3
"2019/01/09",  3.8,  4.1,  3.6
"2019/01/10",  3.6,  4.0,  3.3
"2019/01/11",  3.2,  3.6,  2.9
"2019/01/12"," * "," * "," * "
"2019/01/13"," * "," * "," * "
"2019/01/14"," * "," * "," * "
"2019/01/15"," * "," * "," * "
"2019/01/16",  4.2,  4.6,  3.9
"2019/01/17",  4.6,  4.9,  4.3
"2019/01/18",  4.6,  4.8,  4.3
"2019/01/19",  4.3,  4.6,  3.9
"2019/01/20",  4.2,  4.5,  3.8
"2019/01/21",  4.3,  4.5,  4.1
"2019/01/22",  4.0,  4.4,  3.6
"2019/01/23",  3.9,  4.2,  3.6
"2019/01/24",  4.0,  4.2,  3.7
"2019/01/25",  3.8,  4.2,  3.4
"2019/01/26",  3.9,  4.1,  3.7
"2019/01/27",  3.8,  4.1,  3.4
"2019/01/28",  3.6,  4.0,  3.3
"2019/01/29",  3.7,  4.0,  3.4
"2019/01/30",  3.6,  3.9,  3.2
"2019/01/31",  3.6,  3.9,  3.3
"2019/02/01",  3.6,  3.9,  3.4
"2019/02/02",  3.4,  3.9,  3.1
"2019/02/03",  3.5,  4.1,  3.1
"2019/02/04",  4.8,  5.8,  4.1
"2019/02/05",  5.4,  5.8,  5.1
"2019/02/06",  5.2,  5.3,  5.0
"2019/02/07",  4.9,  5.3,  4.5
"2019/02/08",  5.2,  5.4,  5.0
"2019/02/09",  4.5,  5.1,  4.0
"2019/02/10",  3.8,  4.2,  3.6
"2019/02/11",  3.8,  4.2,  3.4
"2019/02/12",  3.3,  3.8,  3.0
"2019/02/13",  3.7,  3.9,  3.6
"2019/02/14",  3.9,  4.2,  3.6
"2019/02/15",  3.7,  4.2,  3.4
"2019/02/16",  3.6,  4.3,  3.3
"2019/02/17",  4.1,  4.5,  3.8
"2019/02/18",  4.1,  4.6,  3.7
"2019/02/19",  4.5,  4.9,  4.4
"2019/02/20",  5.4,  6.3,  4.9
"2019/02/21",  6.4,  7.0,  6.1
"2019/02/22"," * "," * "," * "
"2019/02/23"," * "," * "," * "
"2019/02/24"," * "," * "," * "
"2019/02/25"," * "," * "," * "
"2019/02/26",  7.2,  7.4,  7.1
"2019/02/27",  7.0,  7.3,  6.7
"2019/02/28",  6.9,  7.0,  6.8
"2019/03/01",  7.0,  7.6,  6.7
"2019/03/02",  7.3,  7.7,  6.8
"2019/03/03",  7.1,  7.7,  6.9
"2019/03/04",  6.9,  7.2,  6.8
"2019/03/05",  7.1,  7.8,  6.7
"2019/03/06",  7.6,  8.0,  7.3
"2019/03/07",  8.0,  8.1,  7.9
"2019/03/08",  7.6,  8.1,  7.2
"2019/03/09",  7.4,  8.0,  6.9
"2019/03/10",  7.8,  8.3,  7.5
"2019/03/11",  8.6,  9.0,  8.3
"2019/03/12",  8.6,  9.1,  8.1
"2019/03/13",  8.8,  9.2,  8.4
"2019/03/14",  8.6,  9.2,  8.0
"2019/03/15",  8.2,  8.7,  7.7
"2019/03/16",  8.3,  8.5,  8.0
"2019/03/17",  8.1,  8.5,  7.7
"2019/03/18",  8.1,  8.6,  7.6
"2019/03/19",  8.6,  9.5,  8.2
"2019/03/20",  9.5, 10.3,  9.0
"2019/03/21", 10.2, 10.6,  9.8
"2019/03/22", 10.9, 11.7, 10.6
"2019/03/23", 10.9, 11.6, 10.0
"2019/03/24",  9.3, 10.1,  8.8
"2019/03/25",  9.3,  9.9,  8.8
"2019/03/26",  9.8, 10.0,  9.6
"2019/03/27",  9.7, 10.3,  9.2
"2019/03/28", 10.2, 10.3, 10.0
"2019/03/29",  9.6, 10.3,  9.2
"2019/03/30",  8.9,  9.2,  8.8
"2019/03/31",  8.9,  9.5,  8.6
"2019/04/01",  9.2,  9.6,  8.7
"2019/04/02",  9.1,  9.6,  8.6
"2019/04/03",  8.9,  9.4,  8.3
"2019/04/04",  9.0,  9.8,  8.3
"2019/04/05",  9.6, 10.5,  9.1
"2019/04/06", 10.6, 11.4, 10.1
"2019/04/07", 11.5, 12.2, 11.1
"2019/04/08", 11.7, 12.3, 11.3
"2019/04/09", 10.7, 11.3, 10.2
"2019/04/10", 10.5, 11.2,  9.8
"2019/04/11",  9.6, 10.2,  9.1
"2019/04/12"," * "," * "," * "
"2019/04/13"," * "," * "," * "
"2019/04/14"," * "," * "," * "
"2019/04/15"," * "," * "," * "
"2019/04/16"," * "," * "," * "
"2019/04/17", 12.5, 12.9, 12.1
"2019/04/18", 12.8, 13.9, 12.3
"2019/04/19", 13.9, 14.7, 13.4
"2019/04/20", 14.3, 14.7, 13.8
"2019/04/21", 14.4, 14.8, 14.0
"2019/04/22", 14.7, 15.5, 14.3
"2019/04/23", 15.4, 16.0, 15.0
"2019/04/24", 15.8, 16.0, 15.6
"2019/04/25", 15.9, 16.7, 15.6
"2019/04/26", 15.9, 16.7, 15.0
"2019/04/27", 14.2, 15.0, 13.7
"2019/04/28", 13.3, 14.0, 12.7
"2019/04/29", 13.8, 14.3, 13.3
"2019/04/30", 14.1, 14.4, 14.0
"2019/05/01", 14.6, 15.5, 14.2
"2019/05/02", 15.6, 16.1, 15.2
"2019/05/03", 16.0, 16.6, 15.5
"2019/05/04", 16.6, 17.2, 16.1
"2019/05/05", 17.0, 17.6, 16.5
"2019/05/06", 17.4, 17.7, 17.0
"2019/05/07", 17.2, 17.7, 16.8
"2019/05/08", 16.1, 16.8, 15.4
"2019/05/09", 16.5, 16.9, 16.1
"2019/05/10", 16.7, 17.4, 16.1
"2019/05/11", 17.2, 17.8, 16.8
"2019/05/12", 17.5, 17.8, 17.2
"2019/05/13", 17.5, 17.9, 17.1
"2019/05/14", 17.7, 17.9, 17.5
"2019/05/15", 17.4, 17.7, 17.1
"2019/05/16", 17.6, 18.5, 17.1
"2019/05/17", 18.4, 19.2, 17.9
"2019/05/18", 18.9, 19.4, 18.5
"2019/05/19", 19.1, 19.6, 18.8
"2019/05/20", 19.2, 19.5, 18.9
"2019/05/21", 19.1, 19.5, 18.7
"2019/05/22", 18.5, 18.9, 18.1
"2019/05/23", 18.7, 19.3, 18.2
"2019/05/24", 19.1, 19.8, 18.6
"2019/05/25", 19.7, 20.4, 19.2
"2019/05/26", 20.2, 20.9, 19.8
"2019/05/27", 20.8, 21.5, 20.3
"2019/05/28", 21.1, 21.5, 20.8
"2019/05/29", 20.5, 21.0, 20.1
"2019/05/30", 19.9, 20.5, 19.4
"2019/05/31", 20.2, 20.5, 19.9
"2019/06/01", 20.2, 20.6, 19.8
"2019/06/02", 20.4, 20.6, 20.2
"2019/06/03", 20.5, 21.0, 20.1
"2019/06/04", 20.9, 21.3, 20.5
"2019/06/05", 21.0, 21.3, 20.8
"2019/06/06", 21.1, 21.8, 20.6
"2019/06/07", 21.4, 21.8, 21.0
"2019/06/08", 20.5, 21.0, 20.2
"2019/06/09", 19.7, 20.3, 19.4
"2019/06/10", 18.9, 19.5, 18.3
"2019/06/11", 18.0, 18.4, 17.7
"2019/06/12", 18.3, 18.5, 18.1
"2019/06/13", 18.6, 19.6, 18.1
"2019/06/14", 19.6, 20.3, 19.2
"2019/06/15", 19.8, 20.3, 19.3
"2019/06/16", 19.4, 20.3, 18.9
"2019/06/17", 20.2, 20.7, 19.8
"2019/06/18", 20.7, 21.2, 20.3
"2019/06/19", 21.1, 21.7, 20.7
"2019/06/20", 21.6, 21.8, 21.3
"2019/06/21", 21.6, 21.8, 21.4
"2019/06/22", 21.3, 21.6, 21.2
"2019/06/23", 21.0, 21.4, 20.8
"2019/06/24", 20.4, 20.8, 20.2
"2019/06/25", 20.2, 20.9, 19.8
"2019/06/26", 20.9, 21.7, 20.5
"2019/06/27", 21.7, 22.0, 21.4
"2019/06/28", 22.0, 22.1, 21.8
"2019/06/29", 21.5, 22.0, 21.1
"2019/06/30", 20.8, 21.1, 20.6
"2019/07/01", 20.5, 20.7, 20.4
"2019/07/02", 20.7, 21.2, 20.4
"2019/07/03", 21.3, 21.6, 21.1
"2019/07/04", 21.5, 21.6, 21.4
"2019/07/05", 21.1, 21.4, 20.9
"2019/07/06", 20.8, 21.0, 20.7
"2019/07/07", 20.4, 20.7, 20.2
"2019/07/08", 20.0, 20.2, 19.8
"2019/07/09", 20.0, 20.2, 19.9
"2019/07/10", 19.8, 20.1, 19.6
"2019/07/11", 20.0, 20.3, 19.8
"2019/07/12", 20.2, 20.3, 20.0
"2019/07/13", 20.3, 20.9, 19.9
"2019/07/14", 20.7, 20.9, 20.6
"2019/07/15", 20.4, 20.6, 20.2
"2019/07/16", 20.3, 20.6, 20.1
"2019/07/17", 20.4, 21.0, 20.2
"2019/07/18", 21.1, 21.5, 20.9
"2019/07/19", 21.8, 22.7, 21.5
"2019/07/20", 22.9, 23.4, 22.6
"2019/07/21", 23.1, 23.4, 22.8
"2019/07/22", 22.3, 22.8, 22.0
"2019/07/23", 21.9, 22.3, 21.8
"2019/07/24", 22.6, 23.5, 22.1
"2019/07/25", 23.7, 24.4, 23.3
"2019/07/26", 24.4, 25.0, 24.1
"2019/07/27", 24.9, 25.2, 24.7
"2019/07/28", 24.8, 25.2, 24.6
"2019/07/29", 25.0, 25.6, 24.6
"2019/07/30", 25.6, 26.2, 25.2
"2019/07/31", 26.1, 26.6, 25.8
"2019/08/01", 26.5, 27.0, 26.2
"2019/08/02", 26.9, 27.3, 26.6
"2019/08/03", 27.1, 27.5, 26.7
"2019/08/04", 27.2, 27.5, 26.8
"2019/08/05", 27.1, 27.4, 26.8
"2019/08/06", 27.2, 27.7, 26.9
"2019/08/07", 27.5, 27.8, 27.2
"2019/08/08", 27.6, 28.0, 27.2
"2019/08/09", 27.8, 28.2, 27.4
"2019/08/10", 27.9, 28.2, 27.6
"2019/08/11", 27.7, 28.1, 27.4
"2019/08/12", 27.3, 27.6, 27.1
"2019/08/13", 27.0, 27.3, 26.8
"2019/08/14", 27.1, 27.2, 26.9
"2019/08/15", 27.0, 27.3, 26.7
"2019/08/16", 26.9, 27.3, 26.6
"2019/08/17", 26.5, 27.1, 26.2
"2019/08/18", 27.0, 27.4, 26.7
"2019/08/19", 27.1, 27.4, 26.9
"2019/08/20", 26.6, 27.0, 26.2
"2019/08/21", 25.9, 26.2, 25.6
"2019/08/22", 25.6, 26.1, 25.4
"2019/08/23", 25.4, 25.7, 25.3
"2019/08/24", 25.4, 25.8, 25.2
"2019/08/25", 25.5, 25.8, 25.2
"2019/08/26", 25.4, 25.7, 25.1
"2019/08/27", 25.1, 25.4, 24.9
"2019/08/28", 25.0, 25.3, 24.9
"2019/08/29", 24.9, 25.5, 24.6
"2019/08/30", 25.2, 25.5, 25.0
"2019/08/31", 24.9, 25.2, 24.7
"2019/09/01", 25.1, 25.4, 24.9
"2019/09/02", 25.2, 25.6, 25.0
"2019/09/03", 25.2, 25.6, 25.0
"2019/09/04", 24.6, 25.0, 24.3
"2019/09/05", 24.2, 24.5, 24.0
"2019/09/06", 24.5, 24.9, 24.2
"2019/09/07", 24.8, 25.1, 24.6
"2019/09/08", 25.0, 25.2, 24.8
"2019/09/09", 24.4, 25.3, 23.7
"2019/09/10", 24.9, 25.5, 24.6
"2019/09/11", 25.4, 25.6, 25.3
"2019/09/12", 25.3, 25.6, 25.1
"2019/09/13", 24.5, 25.2, 24.0
"2019/09/14", 23.6, 24.1, 23.4
"2019/09/15", 23.5, 23.7, 23.2
"2019/09/16", 23.4, 23.7, 23.2
"2019/09/17", 23.3, 23.6, 23.1
"2019/09/18", 23.3, 23.6, 23.0
"2019/09/19", 22.6, 23.0, 22.4
"2019/09/20", 22.2, 22.6, 22.0
"2019/09/21", 22.0, 22.3, 21.9
"2019/09/22", 21.9, 22.3, 21.6
"2019/09/23", 22.3, 22.8, 22.1
"2019/09/24", 22.8, 23.1, 22.6
"2019/09/25", 22.9, 23.2, 22.6
"2019/09/26", 22.8, 23.2, 22.4
"2019/09/27", 22.5, 22.9, 22.1
"2019/09/28", 22.4, 22.8, 22.0
"2019/09/29", 22.7, 22.9, 22.4
"2019/09/30", 22.8, 23.2, 22.6
"2019/10/01", 22.8, 23.1, 22.5
"2019/10/02", 22.8, 23.1, 22.4
"2019/10/03", 22.6, 23.0, 22.3
"2019/10/04", 22.4, 22.7, 22.2
"2019/10/05", 22.3, 22.7, 22.0
"2019/10/06", 22.2, 22.6, 21.7
"2019/10/07", 21.2, 21.7, 21.0
"2019/10/08", 21.1, 21.3, 20.9
"2019/10/09", 21.2, 21.4, 21.0
"2019/10/10", 20.7, 21.3, 20.3
"2019/10/11"," * "," * "," * "
"2019/10/12", 20.7, 21.7, 20.3
"2019/10/13", 21.2, 21.5, 20.9
"2019/10/14", 20.6, 21.3, 20.1
"2019/10/15", 19.7, 20.1, 19.6
"2019/10/16", 19.1, 19.6, 18.9
"2019/10/17", 18.7, 19.0, 18.5
"2019/10/18", 18.7, 18.8, 18.6
"2019/10/19", 18.1, 18.6, 17.8
"2019/10/20", 18.3, 18.6, 18.2
"2019/10/21", 18.5, 18.6, 18.3
"2019/10/22", 17.7, 18.4, 17.2
"2019/10/23", 17.1, 17.6, 16.9
"2019/10/24", 17.5, 17.6, 17.4
"2019/10/25", 16.6, 17.6, 15.3
"2019/10/26", 15.6, 16.2, 15.3
"2019/10/27", 16.3, 16.6, 16.2
"2019/10/28", 16.4, 16.6, 16.2
"2019/10/29", 16.1, 16.5, 15.8
"2019/10/30", 15.7, 16.1, 15.5
"2019/10/31", 15.9, 16.2, 15.7
"2019/11/01", 15.9, 16.2, 15.5
"2019/11/02", 15.7, 16.0, 15.4
"2019/11/03", 15.4, 15.7, 15.2
"2019/11/04", 15.5, 15.6, 15.3
"2019/11/05", 15.0, 15.6, 14.6
"2019/11/06", 14.4, 14.9, 14.1
"2019/11/07", 14.2, 14.5, 13.9
"2019/11/08", 14.3, 14.5, 14.1
"2019/11/09", 14.2, 14.4, 14.0
"2019/11/10", 14.0, 14.2, 13.7
"2019/11/11", 14.0, 14.3, 13.9
"2019/11/12", 14.0, 14.3, 13.8
"2019/11/13", 13.9, 14.2, 13.7
"2019/11/14", 14.1, 14.5, 13.9
"2019/11/15", 14.1, 14.5, 13.9
"2019/11/16", 13.5, 14.0, 13.1
"2019/11/17", 13.1, 13.5, 12.9
"2019/11/18", 13.1, 13.3, 13.0
"2019/11/19", 13.8, 14.3, 13.3
"2019/11/20", 13.8, 14.3, 13.5
"2019/11/21", 13.0, 13.5, 12.6
"2019/11/22", 12.3, 12.8, 11.7
"2019/11/23", 11.4, 11.7, 11.1
"2019/11/24", 12.1, 12.8, 11.7
"2019/11/25", 13.1, 13.4, 12.8
"2019/11/26", 12.9, 13.4, 12.3
"2019/11/27", 11.9, 12.3, 11.7
"2019/11/28", 11.6, 11.7, 11.2
"2019/11/29", 10.6, 11.2, 10.2
"2019/11/30",  9.7, 10.3,  9.3
"2019/12/01",  9.2,  9.6,  8.9
"2019/12/02",  9.2,  9.6,  9.0
"2019/12/03",  9.8, 10.1,  9.6
"2019/12/04",  9.6, 10.1,  9.3
"2019/12/05",  9.1,  9.6,  8.8
"2019/12/06",  8.9,  9.1,  8.7
"2019/12/07",  8.5,  8.8,  8.2
"2019/12/08",  8.0,  8.3,  7.7
"2019/12/09",  7.8,  8.2,  7.6
"2019/12/10",  8.2,  8.9,  7.9
"2019/12/11",  9.2,  9.7,  8.9
"2019/12/12",  9.7,  9.9,  9.5
"2019/12/13",  9.2,  9.9,  8.8
"2019/12/14",  8.7,  8.9,  8.5
"2019/12/15",  8.4,  8.9,  8.2
"2019/12/16",  8.0,  8.4,  7.7
"2019/12/17",  8.0,  8.3,  7.8
"2019/12/18",  8.5,  8.9,  8.3
"2019/12/19",  8.7,  8.9,  8.6
"2019/12/20",  8.6,  8.9,  8.4
"2019/12/21",  8.6,  8.9,  8.4
"2019/12/22",  8.1,  8.4,  7.9
"2019/12/23",  7.8,  8.1,  7.6
"2019/12/24",  7.6,  8.0,  7.3
"2019/12/25",  7.1,  7.5,  6.9
"2019/12/26",  6.8,  7.0,  6.5
"2019/12/27",  7.4,  7.8,  7.0
"2019/12/28",  7.1,  7.7,  6.7
"2019/12/29",  6.4,  6.9,  6.0
"2019/12/30",  6.4,  6.5,  6.3
"2019/12/31",  6.7,  7.2,  6.4
